Regional Weather Roundup
Issued by NWS Albany, NY

Home | Current Version | Previous Version | Text Only | Print | Product List | Glossary On
Versions: 1 2 3 4 5 6 7 8 9 10 11 12 13 14 15 16 17 18 19 20 21 22 23 24 25 26 27 28 29 30 31 32 33 34 35 36 37 38 39 40 41 42 43 44 45 46 47 48 49 50
000
ASUS41 KALY 302210
RWRALY

NEW YORK STATE HOURLY WEATHER ROUNDUP
NATIONAL WEATHER SERVICE ALBANY NY
600 PM EDT TUE JUN 30 2015

NOTE: "FAIR" INDICATES FEW OR NO CLOUDS BELOW 12,000 FEET WITH NO
SIGNIFICANT WEATHER AND/OR NO OBSTRUCTIONS TO VISIBILITY.

NYZ032-033-038>043-046>054-057>066-NYZ062>081-302300-
EAST


CITY           SKY/WX    TMP DP  RH WIND       PRES   REMARKS
ALBANY         PTSUNNY   70  65  84 N7        29.88F
GLENS FALLS    CLOUDY    63  61  93 N6        29.90F
POUGHKEEPSIE   CLOUDY    73  68  84 CALM      29.86F
NEWBURGH       PTSUNNY   73  63  68 S7        29.88F
MONTGOMERY     CLOUDY    69  67  93 N5        29.86F
WHITE PLAINS   CLOUDY    77  61  57 S9        29.90F
ISLIP          PTSUNNY   74  59  59 SE15      29.90F
NEW YORK CITY  CLOUDY    77  63  61 S17G24    29.87F
CENTRAL PARK   CLOUDY    76  64  66 VRB5G22   29.91F
$$

NYZ005>009-017-018-044>046-055-056-302300-
CENTRAL


CITY           SKY/WX    TMP DP  RH WIND       PRES   REMARKS
FULTON         LGT RAIN  69  65  86 CALM      29.78S
SYRACUSE       CLOUDY    74  66  76 SE14G20   29.76F
ROME           PTSUNNY   68  63  84 SE14      29.83F
ELMIRA         MOSUNNY   77  65  66 S7        29.76F
BINGHAMTON     PTSUNNY   69  64  84 S13G23    29.83F
MONTICELLO     CLOUDY    64  64 100 E6        29.91S
$$

NYZ026>034-041>043-302300-
NORTH


CITY           SKY/WX    TMP DP  RH WIND       PRES   REMARKS
WATERTOWN      CLOUDY    67  62  84 E6        29.79F
FORT DRUM      NOT AVBL
MASSENA        LGT RAIN  65  59  81 SE7       29.87F
SARANAC LAKE   CLOUDY    60  56  86 S7        29.88F
PLATTSBURGH    LGT RAIN  62  59  90 S5        29.90F
$$

NYZ001>004-010>016-019>021-302300-
WEST


CITY           SKY/WX    TMP DP  RH WIND       PRES   REMARKS
NIAGARA FALLS  PTSUNNY   73  60  63 SW12      29.74F
BUFFALO        MOSUNNY   72  61  68 SW6       29.76F
DUNKIRK        SUNNY     70  60  70 NW6       29.77F
JAMESTOWN      MOSUNNY   70  61  73 N10       29.80S
WELLSVILLE     LGT RAIN  70  63  78 SW6       29.83S
ROCHESTER      TSTM      71  65  81 NW7       29.78R
PENN YAN       LGT RAIN  75  63  66 S8        29.77F
$$

             KEY
       WCI = WIND CHILL INDEX
       VSB = VISIBILITY
       HX  = HEAT INDEX
$$



USA.gov is the U.S. government's official web portal to all federal, state and local government web resources and services.